Raton, NM

10:32 PM MDT on July 25, 2017 (GMT -0600)
Raton Municipal-Crews

Weather History for KRTN - March, 2014

Change the Weather History Date:

Saturday, March 29, 2014

  Actual Average (KTAD) Record (KTAD)
Temperature  
Mean Temperature 44 °F -  
Max Temperature 64 °F 53 °F 78 °F (1986)
Min Temperature 24 °F 26 °F 4 °F (1972)
Degree Days  
Heating Degree Days 21    
Moisture  
Dew Point 18 °F    
Average Humidity 37    
Maximum Humidity 69    
Minimum Humidity 13    
Precipitation  
Precipitation 0.00 in - - ()
Sea Level Pressure  
Sea Level Pressure 30.09 in    
Wind  
Wind Speed 11 mph (SSW)    
Max Wind Speed 33 mph    
Max Gust Speed 45 mph    
Visibility 10 miles    
Events      
Averages and records for this station are not official NWS values.
T = Trace of Precipitation, MM = Missing Value Source: NWS Daily Summary

Daily Weather History Graph

Daily Weather History Graph

Search for Another Location

Airport or City:

Trip Planner

Search our weather history database for the weather conditions in past years. The results will help you decide how hot, cold, wet, or windy it might be!

Date:

Astronomy

Mar. 29, 2014 Rise Set
Actual Time 6:48 AM MDT 7:17 PM MDT
Civil Twilight 6:22 AM MDT 7:43 PM MDT
Nautical Twilight 5:51 AM MDT 8:14 PM MDT
Astronomical Twilight 5:20 AM MDT 8:45 PM MDT
Moon 5:56 AM MDT (3/29) 6:26 PM MDT (3/29)
Length of Visible Light 13h 21m
Length of Day
12h 29m
Waning Crescent, 1% of the Moon is Illuminated
Mar 29
Waning Crescent
Mar 30
New
Apr 7
First Quarter
Apr 15
Full
Apr 22
Last Quarter

Hourly Weather History & Observations

Time (MDT) Temp. Windchill Dew Point Humidity Pressure Visibility Wind Dir Wind Speed Gust Speed Precip Events Conditions
12:53 AM 32.0 °F - 12.9 °F 45% 30.18 in 10.0 mi North - - N/A   Clear
1:53 AM 30.9 °F 27.5 °F 14.0 °F 50% 30.17 in 10.0 mi ENE 3.5 mph - N/A   Clear
2:53 AM 27.0 °F 23.0 °F 10.9 °F 51% 30.19 in 10.0 mi NNW 3.5 mph - N/A   Clear
3:53 AM 26.1 °F 19.4 °F 12.9 °F 58% 30.19 in 10.0 mi North 5.8 mph - N/A   Clear
4:53 AM 25.0 °F 20.7 °F 12.0 °F 58% 30.21 in 10.0 mi NE 3.5 mph - N/A   Clear
5:53 AM 25.0 °F 17.1 °F 14.0 °F 63% 30.22 in 10.0 mi North 6.9 mph - N/A   Clear
6:53 AM 24.1 °F 18.2 °F 15.1 °F 69% 30.24 in 10.0 mi North 4.6 mph - N/A   Clear
7:53 AM 34.0 °F 29.8 °F 19.0 °F 54% 30.24 in 10.0 mi NNW 4.6 mph - N/A   Clear
8:53 AM 37.0 °F 34.5 °F 23.0 °F 57% 30.24 in 10.0 mi South 3.5 mph - N/A   Clear
9:53 AM 43.0 °F 37.7 °F 23.0 °F 45% 30.22 in 10.0 mi SSW 9.2 mph - N/A   Clear
10:53 AM 53.1 °F - 21.9 °F 30% 30.17 in 10.0 mi South 24.2 mph 33.4 mph N/A   Clear
11:53 AM 55.9 °F - 19.9 °F 25% 30.13 in 10.0 mi SSW 20.7 mph 32.2 mph N/A   Clear
12:53 PM 59.0 °F - 18.0 °F 20% 30.08 in 10.0 mi South 25.3 mph 35.7 mph N/A   Clear
1:53 PM 61.0 °F - 18.0 °F 19% 30.04 in 10.0 mi SSW 26.5 mph 32.2 mph N/A   Clear
2:53 PM 64.0 °F - 19.0 °F 18% 29.98 in 10.0 mi South 31.1 mph 39.1 mph N/A   Clear
3:53 PM 64.0 °F - 21.0 °F 19% 29.94 in 10.0 mi South 32.2 mph 44.9 mph N/A   Clear
4:53 PM 63.0 °F - 23.0 °F 22% 29.92 in 10.0 mi South 33.4 mph 42.6 mph N/A   Clear
5:53 PM 62.1 °F - 21.0 °F 21% 29.93 in 10.0 mi South 27.6 mph 38.0 mph N/A   Clear
6:41 PM 61.0 °F - 10.0 °F 13% 30.02 in 10.0 mi WSW 12.7 mph - N/A   Clear
6:53 PM 59.0 °F - 10.9 °F 15% 29.96 in 10.0 mi WSW 10.4 mph - N/A   Clear
7:53 PM 53.1 °F - 17.1 °F 24% 29.96 in 10.0 mi SSW 6.9 mph - N/A   Clear
8:53 PM 51.1 °F - 21.0 °F 31% 29.99 in 10.0 mi South 15.0 mph - N/A   Clear
9:53 PM 51.1 °F - 24.1 °F 35% 29.98 in 10.0 mi South 24.2 mph 28.8 mph N/A   Clear
10:53 PM 45.0 °F 41.2 °F 23.0 °F 42% 29.97 in 10.0 mi West 6.9 mph - N/A   Clear
11:53 PM 44.1 °F 40.1 °F 24.1 °F 45% 29.96 in 10.0 mi South 6.9 mph - N/A   Clear